ROVANIEMI_(CIV/MIL) current weather conditions

sailwx.info

Wind from 310 at 7 knots

Air temperature -7.0° C
Visibility: greater than 5.4 NM
Dewpoint -10.0° C

Last reported at 2020-Jan-22 13:50 UTC.
Time now 2020-Jan-22 15:06 UTC

Location: N 66°34' E 025°50'.
View on Google Maps.

See reports from other nearby stations

  
Tides and Currents Weather Stations Pressure Air Temp Water Temp Dewpoint Dewpoint Depression Visibility Wind Speed Wind Dir Waves Ship Positions
date/time (UTC)wind fromknots sea level pressurealtimeterstation pressurevisibilityair tempwater tempwave heightnotes
2020-Jan-22 13:50 310 7 5.4-7.0
2020-Jan-22 13:20 310 7 5.4-7.0
2020-Jan-22 12:50 300 6 5.4-7.0
2020-Jan-22 12:20 300 5 5.4-7.0
2020-Jan-22 11:50 330 8 5.4-6.0
2020-Jan-22 11:20 310 7 5.4-6.0
2020-Jan-22 10:50 310 7 5.4-6.0
2020-Jan-22 10:20 310 6 5.4-6.0
2020-Jan-22 09:50 310 7 5.4-6.0
2020-Jan-22 09:20 310 8 5.4-6.0
2020-Jan-22 08:50 320 7 5.4-7.0
2020-Jan-22 08:20 310 6 5.4-7.0
2020-Jan-22 07:50 320 5 5.4-7.0
2020-Jan-22 07:20 310 6 5.4-7.0
2020-Jan-22 06:50 330 8 5.4-7.0
2020-Jan-22 06:20 320 6 5.4-6.0
2020-Jan-22 05:50 330 8 5.4-6.0
2020-Jan-22 05:20 330 8 5.4-6.0
2020-Jan-22 04:50 330 9 5.4-6.0
2020-Jan-22 04:20 330 9 5.4-6.0
2020-Jan-22 03:50 330 7 5.4-5.0
2020-Jan-22 03:20 330 7 5.4-5.0
2020-Jan-22 02:50 330 9 5.4-5.0
2020-Jan-22 02:20 330 12 5.4-5.0
2020-Jan-22 01:50 330 12 5.4-5.0
2020-Jan-22 01:20 320 11 5.4-5.0
2020-Jan-22 00:50 290 7 5.4-5.0
2020-Jan-22 00:20 290 6 5.4-6.0
2020-Jan-21 23:50 280 6 5.4-6.0
2020-Jan-21 23:20 290 7 5.4-5.0
2020-Jan-21 22:50 300 6 5.4-5.0
2020-Jan-21 22:20 300 6 5.4-5.0
2020-Jan-21 21:50 300 7 5.4-5.0
2020-Jan-21 21:20 290 6 5.4-5.0
2020-Jan-21 20:50 280 6 5.4-5.0
2020-Jan-21 20:20 280 6 5.4-5.0
2020-Jan-21 19:50 270 6 5.4-5.0
2020-Jan-21 19:20 260 9 5.4-5.0
2020-Jan-21 18:50 270 6 5.4-5.0
2020-Jan-21 18:20 240 6 5.4-5.0
2020-Jan-21 17:50 250 5 5.4-5.0
2020-Jan-21 17:20 250 6 5.4-4.0
2020-Jan-21 16:50 240 9 5.4-4.0
2020-Jan-21 16:20 250 8 5.4-4.0
2020-Jan-21 15:50 240 8 5.4-4.0
2020-Jan-21 15:20 250 7 5.4-3.0
2020-Jan-21 14:50 250 8 5.4-4.0
2020-Jan-21 14:20 250 7 5.4-3.0
2020-Jan-21 13:50 260 6 5.4-3.0
2020-Jan-21 13:20 260 9 5.4-3.0
2020-Jan-21 12:50 260 11 5.4-2.0
2020-Jan-21 12:20 270 12 5.4-2.0
2020-Jan-21 11:50 270 11 5.4-2.0
2020-Jan-21 11:20 270 11 5.4-2.0
2020-Jan-21 10:50 270 12 5.4-1.0
2020-Jan-21 10:20 270 12 5.4-1.0
2020-Jan-21 09:50 280 9 5.4-1.0
2020-Jan-21 09:20 270 11 5.4-0.0
2020-Jan-21 08:50 270 8 5.4-0.0
2020-Jan-21 08:20 280 11 5.4-0.0
2020-Jan-21 07:50 280 11 gusting 20 5.4-0.0 Light snow.
2020-Jan-21 07:20 270 11 5.4-0.0
2020-Jan-21 06:50 240 6 5.4-1.0
2020-Jan-21 06:20 240 7 5.4-0.0
2020-Jan-21 05:50 250 6 5.4-0.0
2020-Jan-21 05:20 250 6 5.4-0.0
2020-Jan-21 04:50 5.4-0.0
2020-Jan-21 04:20 260 6 5.4-0.0
2020-Jan-21 03:50 290 6 5.4-0.0
2020-Jan-21 03:20 310 7 5.4-0.0
2020-Jan-21 02:50 310 8 5.4-0.0
2020-Jan-21 02:20 280 8 5.4-0.0
2020-Jan-21 01:50 290 7 5.4-0.0
2020-Jan-21 01:20 300 6 5.4 1.0
2020-Jan-21 00:50 270 8 5.4 1.0
2020-Jan-21 00:20 280 7 5.4 1.0
2020-Jan-20 23:50 270 7 5.4 1.0
2020-Jan-20 23:20 260 7 5.4 1.0
2020-Jan-20 22:50 250 8 5.4 1.0
2020-Jan-20 22:20 240 8 0.4-0.0 Light rain.
2020-Jan-20 21:50 230 12 0.4-0.0 Light rain.
2020-Jan-20 21:20 230 11 0.4-0.0 Light rain.
2020-Jan-20 20:50 230 12 0.3-0.0 Light rain snow.
2020-Jan-20 20:20 220 12 0.4-0.0 Light rain snow.
2020-Jan-20 19:50 220 11 0.6-0.0 Light rain snow.
2020-Jan-20 19:20 220 12 1.2-0.0 Light freezing drizzle. Snow.
2020-Jan-20 18:50 220 13 2.1-0.0 Light freezing drizzle. Snow.
2020-Jan-20 18:20 220 12 1.4-0.0 Light snow.
2020-Jan-20 17:50 220 13 2.0-0.0 Light snow showers.
2020-Jan-20 17:20 220 12 5.4-0.0 Light rain showers.
2020-Jan-20 16:50 230 12 5.4-0.0
2020-Jan-20 16:20 220 13 2.6-0.0 Mist.
2020-Jan-20 15:50 220 15 4.9-0.0
2020-Jan-20 15:20 220 9 5.4-0.0